Back to catalog

FENGYUN 1C DEB

AlivePO
NORAD 30116·DEBRIS·🇨🇳 China

Launched May 10, 1999 from Taiyuan Satellite Launch Center

Loading…

Next Passes (next 24 hours)

TLE

FreshSource: Space-Track

Epoch: Sep 14, 2026, 06:28 UTC

1 30116U 99025RV  26257.26947829  .00002372  00000-0  91754-3 0  9998
2 30116  99.3891 354.9482 0019317 266.1634 117.0185 14.31074792 14428

Track FENGYUN 1C DEB in real time with AllMySat

Download on the App Store